星链-33768 (STARLINK-33768)

导读

STARLINK-33768是美国(US)于2025年4月4日发射的星链系列卫星,属于SpaceX星链星座组网的组成部分,旨在为全球提供高速低延迟互联网覆盖服务。星链项目通过大规模低轨卫星组网,可弥补地面网络覆盖盲区,服务偏远地区、海上及航空等场景,该卫星发射进一步扩充了星链星座的在轨规模。

基本信息
目录编号:
63454
目录名称:
STARLINK-33768
国际标识:
2025-069X
轨道中心:
EARTH
卫星名称:
星链-33768
卫星全名:
星链-33768 (STARLINK-33768)
卫星状态:
在轨 (已飞行436 天)
发射日期:
2025-04-04 UTC
国别 :
美国 (US)
星等 :
--
轨道信息
数据来源 国际轨道数据
星历时间: 2026-06-14T04:00:02+0800
9小时前
查看轨道信息
半长轴: 6840.964km
偏心率: 0.0000943
轨道倾角: 53.159°
近地点辐角 140.005°
升交点赤经 51.101°
平近点角 160.319°
近地点: 462.181km
远地点: 463.473km
周期: 93.850分钟
每日圈数: 15.343586
详细信息
固有亮度:
5
最大亮度:
2.5
卫星平台:
Starlink V1.0
覆盖范围:
全球
运营商:
太空探索技术公司
运营商所在国:
美国
制造商(研发单位):
太空探索技术公司
制造商所在国:
美国
使用方式:
暂无
卫星简介
Starlink 计划是 SpaceX 推出的全球卫星互联网项目,通过发射低轨道卫星,为全球尤其是偏远地区提供高速、低延迟的互联网服务。自 2019 年起,Starlink 已部署数千颗卫星,旨在缩小全球数字鸿沟,推动互联网普及。该项目还为军事、航空等行业提供通信支持,带来广泛经济效益。
2D轨道图
3D轨道图
轨道高度分析图
轨道倾角分析图
轨道综合分析图
查看轨道综合分析图